This is the latest recevied weather packets stored in our database for station/object W4CAT-WX. If no packets are shown the sender has not sent any weather packets the latest 10 day(s).
| Time | Temp. | Humidity | Pressure | Rain* | Wind** | Luminosity | Snow |
|---|---|---|---|---|---|---|---|
| 1777273348 | 17.78° C | 59% | 977.6 hPa | 0 mm | - | - | - |
| 1777272418 | 17.78° C | 58% | 977.6 hPa | 0 mm | - | - | - |
| 1777271518 | 18.33° C | 56% | 977.6 hPa | 0 mm | - | - | - |
| 1777270618 | 18.89° C | 54% | 977.6 hPa | 0 mm | - | - | - |
| 1777269688 | 18.89° C | 53% | 977.6 hPa | 0 mm | - | - | - |
| 1777268788 | 18.89° C | 53% | 977.6 hPa | 0 mm | - | - | - |
| 1777267888 | 18.89° C | 53% | 977.6 hPa | 0 mm | - | - | - |
| 1777266958 | 19.44° C | 54% | 977.3 hPa | 0 mm | - | - | - |
| 1777266058 | 19.44° C | 55% | 977.6 hPa | 0 mm | - | - | - |
| 1777265158 | 19.44° C | 54% | 977.3 hPa | 0 mm | - | - | - |
| 1777264258 | 20° C | 54% | 977.3 hPa | 0 mm | - | - | - |
| 1777263357 | 19.44° C | 54% | 977.3 hPa | 0 mm | - | - | - |
| 1777262427 | 19.44° C | 57% | 977.3 hPa | 0 mm | - | - | - |
| 1777261528 | 20° C | 56% | 977.6 hPa | 0 mm | - | - | - |
| 1777260627 | 20° C | 55% | 977.6 hPa | 0 mm | - | - | - |
| 1777259698 | 20° C | 57% | 977.3 hPa | 0 mm | - | - | - |
| 1777258797 | 20° C | 56% | 977.3 hPa | 0 mm | - | - | - |
| 1777257868 | 20° C | 58% | 977.3 hPa | 0 mm | - | - | - |
| 1777256937 | 20.56° C | 56% | 977.3 hPa | 0 mm | - | - | - |
| 1777256007 | 20.56° C | 56% | 977.3 hPa | 0 mm | - | - | - |
| 1777255077 | 20.56° C | 56% | 977 hPa | 0 mm | - | - | - |
| 1777254147 | 20.56° C | 58% | 977 hPa | 0 mm | - | - | - |
| 1777253217 | 20.56° C | 59% | 976.6 hPa | 0 mm | - | - | - |
| 1777252287 | 21.11° C | 59% | 976.6 hPa | 0 mm | - | - | - |
| 1777251357 | 21.11° C | 58% | 976.3 hPa | 0 mm | - | - | - |
* Rain latest hour (hover to see other rain measurements)
** Current wind speed in m/s (hover to see current wind gust speed)